x

9440910 - Toke Point, Wa (tokw1) Weather Station

2:00am - Fri 31st Jul 2015 All times are PDT. -7 hours from GMT.

  • Wind
    5mph, 6mph gusts
  • Sea Temp 60°f
  • 空気 Temp 59°f
  • Sea Pressure 1018.2mb
  • 9440910 - Toke Point, Wa
  • 9440910 - Toke Point, Wa

More Historic Weather Station data

Upgrade to MSW Pro to gain access to the past 30 days of data for over 8000 Wavebouys and Weather Stations around the globe.

Join Pro

Comparision Forecast

View Surf forecast
   
Fri 07/31 2:00am 5 6 mph 1018.2mb 60f 59f
1:54am 5 6 mph 1018.2mb 60f 59f
1:48am 5 6 mph 1018.2mb 60f 59f
1:42am 5 6 mph 1018.2mb 59f 60f
1:36am 5 6 mph 1018.1mb 59f 60f
1:30am 5 7 mph 1018.1mb 59f 60f
1:24am 6 8 mph 1018.1mb 58f 61f
1:18am 6 8 mph 1018.1mb 58f 61f
1:12am 6 7 mph 1018.1mb 58f 61f
1:06am 6 7 mph 1018.1mb 58f 61f
1:00am 6 7 mph 1018.1mb 57f 62f
12:54am 6 8 mph 1018.1mb 57f 62f
12:48am 5 8 mph 1018.2mb 57f 62f
12:42am 7 8 mph 1018.2mb 57f 62f
12:36am 6 8 mph 1018.1mb 57f 62f
12:30am 6 8 mph 1018.1mb 57f 62f
12:24am 6 9 mph 1018.1mb 57f 62f
12:18am 8 11 mph 1018.1mb 58f 63f
12:12am 6 9 mph 1018.1mb 58f 63f
12:06am 9 10 mph 1018.1mb 58f 63f
12:00am 8 10 mph 1018.1mb 58f 63f
Thu 07/30 11:54pm 8 10 mph 1018mb 58f 63f
11:48pm 6 8 mph 1018mb 58f 64f
11:42pm 3 6 mph 1018.1mb 59f 64f
11:36pm 6 7 mph 1018.1mb 59f 64f
11:30pm 6 8 mph 1018mb 60f 64f
11:24pm 7 8 mph 1018mb 60f 64f
11:18pm 6
mph
1018.1mb 60f 64f
11:12pm 6 7 mph 1018.2mb 62f 65f
11:06pm 5 7 mph 1018.1mb 61f 65f
11:00pm 3 6 mph 1018.2mb 62f 65f
10:54pm 2 5 mph 1018.1mb 61f 65f
10:48pm 1 5 mph 1018.1mb 61f 65f
10:42pm 3 6 mph 1018.1mb 62f 65f
10:36pm 5 6 mph 1018.1mb 62f 64f
10:30pm 5 7 mph 1018.1mb 62f 64f
10:24pm 5 6 mph 1018mb 63f 64f
10:18pm 5 6 mph 1018mb 63f 64f
10:12pm 5 6 mph 1018mb 63f 64f
10:06pm 3 6 mph 1017.9mb 64f 64f
10:00pm 6 7 mph 1017.9mb 65f 65f
9:54pm 3 6 mph 1017.9mb 64f 65f
9:48pm 5 9 mph 1017.8mb 65f 65f
9:42pm 7 8 mph 1017.7mb 66f 66f
9:36pm 7 13 mph 1017.7mb 66f 66f
9:30pm 11 14 mph 1017.6mb 65f 66f
9:24pm 10 14 mph 1017.5mb 67f 67f
9:18pm 10 15 mph 1017.4mb 67f 67f
9:12pm 7 13 mph 1017.3mb 67f 67f
9:06pm 8 10 mph 1017.2mb 68f 68f
9:00pm 6 8 mph 1017.2mb 67f 68f
8:54pm 7 11 mph 1017.1mb 68f 68f
8:48pm 9 13 mph 1017mb 67f 68f
8:42pm 7 9 mph 1017mb 69f 69f
8:36pm 6 11 mph 1017mb 67f 69f
8:30pm 6 11 mph 1017mb 69f 69f
8:24pm 9 14 mph 1016.9mb 69f 70f
8:18pm 10 15 mph 1016.9mb 68f 70f
8:12pm 8 15 mph 1016.8mb 68f 70f
8:06pm 7 10 mph 1016.9mb 68f 70f
8:00pm 7 11 mph 1016.9mb 68f 71f
7:54pm 10 16 mph 1017mb 68f 71f
7:48pm 7 11 mph 1017mb 69f 71f
7:42pm 13 17 mph 1016.9mb 69f 71f
7:36pm 10 18 mph 1016.9mb 69f 72f
7:30pm 16 18 mph 1016.8mb 69f 72f
7:24pm 11 21 mph 1016.8mb 71f 72f
7:18pm 17 21 mph 1016.8mb - 73f
7:12pm 17 22 mph 1016.7mb - 73f
7:06pm 18 23 mph 1016.7mb - 73f
7:00pm 21 24 mph 1016.6mb - 73f
6:54pm 22 25 mph 1016.6mb - 73f
6:48pm 22 29 mph 1016.6mb - 74f
6:42pm 23 28 mph 1016.6mb - 74f
6:36pm 21 28 mph 1016.6mb - 74f
6:30pm 22 29 mph 1016.7mb - 74f
6:24pm 25 29 mph 1016.7mb - 75f
6:18pm 25 31 mph 1016.8mb - 75f
6:12pm 25 32 mph 1016.8mb - 75f
6:06pm 25 30 mph 1016.8mb - 76f
6:00pm 26 30 mph 1016.8mb - 76f
5:54pm 25 31 mph 1016.9mb - 76f
5:48pm 22 28 mph 1016.9mb - 77f
5:42pm 23 28 mph 1016.9mb - 77f
5:36pm 22 24 mph 1017mb - 78f
5:30pm 17 22 mph 1017mb - 78f
5:24pm 20 21 mph 1017mb - 78f
5:18pm 18 22 mph 1017mb - 78f
5:12pm 18 21 mph 1016.9mb 70f 78f
5:06pm 20 25 mph 1016.9mb 70f 78f
5:00pm 24 29 mph 1017mb 69f 78f
4:54pm 21 28 mph 1017mb 69f 78f
4:48pm 18 22 mph 1017mb 69f 78f
4:42pm 20 24 mph 1017mb 68f 79f
4:36pm 20 24 mph 1017mb 68f 79f
4:30pm 18 25 mph 1017mb 68f 79f
4:24pm 22 25 mph 1017mb 68f 80f
4:18pm 20 26 mph 1017mb 67f 80f
4:12pm 20 22 mph 1017mb 68f 80f
4:06pm 20 22 mph 1017.1mb 68f 80f
4:00pm 21 24 mph 1017.1mb 67f 80f
3:54pm 23 28 mph 1017.1mb 67f 80f
3:48pm 22 26 mph 1017.2mb 67f 80f
3:42pm 21 25 mph 1017.2mb 67f 80f
3:36pm 22 24 mph 1017.2mb 67f 81f
3:30pm 20 23 mph 1017.2mb 67f 80f
3:24pm 20 26 mph 1017.3mb 67f 80f
3:18pm 22 24 mph 1017.3mb 64f 80f
3:12pm 23 26 mph 1017.3mb 63f 80f
3:06pm 22 24 mph 1017.3mb 64f 80f
3:00pm 20 22 mph 1017.4mb 64f 80f
2:54pm 20 21 mph 1017.4mb 62f 80f
2:48pm 18 23 mph 1017.5mb 59f 80f
2:42pm 18 22 mph 1017.5mb 61f 80f
2:36pm 15 20 mph 1017.6mb 60f 80f
2:30pm 14 17 mph 1017.6mb 61f 81f
2:24pm 14 16 mph 1017.5mb 62f 82f
2:18pm 15 17 mph 1017.6mb 58f 82f
2:12pm 15 18 mph 1017.5mb 58f 82f
2:06pm 14 17 mph 1017.6mb 57f 82f
2:00pm 15 17 mph 1017.6mb 57f 82f
1:54pm 14 17 mph 1017.6mb 57f 81f
1:48pm 14 17 mph 1017.6mb 57f 81f
1:42pm 15 18 mph 1017.6mb 57f 82f
1:36pm 16 18 mph 1017.6mb 57f 82f
1:30pm 17 18 mph 1017.7mb 57f 83f
1:24pm 16 22 mph 1017.7mb 58f 83f
1:18pm 16 20 mph 1017.7mb 58f 83f
1:12pm 14 18 mph 1017.6mb 58f 84f
1:06pm 14 15 mph 1017.7mb 59f 85f
1:00pm 14 15 mph 1017.7mb 59f 84f
12:54pm 9 13 mph 1017.7mb 60f 82f
12:48pm 9 13 mph 1017.7mb 60f 85f
12:42pm 6 9 mph 1017.7mb 60f 85f
12:36pm 9 14 mph 1017.7mb 61f 84f
12:30pm 13 15 mph 1017.8mb 62f 85f
12:24pm 13 14 mph 1017.8mb 62f 84f
12:18pm 7 11 mph 1017.8mb 63f 83f
12:12pm 8 11 mph 1017.9mb 63f 84f
12:06pm 11 14 mph 1018mb 63f 82f
12:00pm 11 15 mph 1018mb 64f 82f
11:54am 9 14 mph 1018mb 64f 81f
11:48am 8 9 mph 1018mb 64f 80f
11:42am 7 10 mph 1018mb 64f 81f
11:36am 8 13 mph 1018.1mb 65f 81f
11:30am 10 17 mph 1018.1mb 65f 81f
11:24am 15 17 mph 1018mb 65f 82f
11:18am 13 16 mph 1018mb 65f 81f
11:12am 10 13 mph 1018.1mb 65f 80f
11:06am 9 11 mph 1018.1mb 67f 79f
11:00am 11 14 mph 1018.1mb 66f 79f
10:54am 10 16 mph 1018.1mb 66f 79f
10:48am 11 15 mph 1018.1mb 66f 79f
10:42am 10 11 mph 1018.1mb 67f 78f
10:36am 9 14 mph 1018.1mb 67f 78f
10:30am 13 14 mph 1018.2mb 67f 78f
10:24am 10 13 mph 1018.1mb 67f 77f
10:18am 10 14 mph 1018.1mb 66f 78f
10:12am 10 13 mph 1018.1mb 66f 77f
10:06am 7 9 mph 1018.1mb 67f 75f
10:00am 8 10 mph 1018.2mb 67f 75f
9:54am 9 11 mph 1018.2mb 67f 75f
9:48am 9 10 mph 1018.2mb 67f 75f
9:42am 8 10 mph 1018.2mb 67f 75f
9:36am 7
mph
1018.2mb 68f 74f
9:30am 7 9 mph 1018.2mb 67f 74f
9:24am 6 8 mph 1018.3mb 67f 73f
9:18am 6 7 mph 1018.3mb 67f 73f
9:12am 6 7 mph 1018.4mb 67f 73f
9:06am 6 7 mph 1018.4mb 67f 73f
9:00am 6 8 mph 1018.4mb 67f 72f
8:54am 8
mph
1018.4mb 67f 72f
8:48am 7 8 mph 1018.4mb 67f 72f
8:42am 3 5 mph 1018.5mb 67f 70f
8:36am 3
mph
1018.5mb 67f 70f
8:24am 5 7 mph 1018.4mb 68f 69f
8:18am 7 8 mph 1018.4mb 68f 68f
8:12am 8 9 mph 1018.4mb 68f 67f
8:06am 9
mph
1018.5mb 68f 67f
8:00am 9 10 mph 1018.5mb 68f 67f
7:54am 10
mph
1018.5mb 68f 66f
7:48am 9
mph
1018.5mb 68f 66f
7:42am 9 10 mph 1018.5mb 68f 66f
7:36am 9
mph
1018.5mb 68f 66f
7:24am 9 10 mph 1018.4mb 68f 65f
7:18am 10 11 mph 1018.4mb 68f 65f
7:12am 11
mph
1018.3mb 68f 65f
7:06am 10 11 mph 1018.3mb 68f 64f
7:00am 10
mph
- - -
6:48am 8 9 mph 1018.2mb 67f 63f
6:42am 8 9 mph 1018.2mb 67f 63f
6:36am 8 9 mph 1018.2mb 67f 62f
6:30am 8
mph
1018.1mb 67f 63f
6:24am 6 7 mph 1018.1mb 67f 62f
6:18am 6 9 mph 1018mb 66f 62f
6:06am 9 10 mph 1017.8mb 65f 62f
6:00am 9 11 mph 1017.8mb 66f 62f
5:54am 9 11 mph 1017.8mb 66f 62f
5:48am  -  mph - - 61f
5:42am  -  mph - - 62f
5:30am  -  mph - - 61f
5:24am  -  mph - - 62f
5:18am  -  mph - - 62f
5:12am  -  mph - - 62f
5:06am  -  mph - - 62f
5:00am  -  mph - - 62f
Wed 07/29 8:36pm  -  mph - - 69f
8:30pm  -  mph - - 69f
8:24pm  -  mph - - 70f
8:18pm  -  mph - - 71f
8:12pm  -  mph - - 71f
8:06pm  -  mph - - 71f
8:00pm  -  mph - - 71f
7:54pm  -  mph - - 72f
7:48pm  -  mph - - 72f
7:42pm  -  mph - - 72f
7:36pm  -  mph - - 72f
7:30pm  -  mph - - 72f
7:24pm  -  mph - - 73f
7:18pm  -  mph - - 72f
7:12pm  -  mph - - 73f
7:06pm  -  mph - - 72f
7:00pm  -  mph - - 73f
6:54pm  -  mph - - 73f
6:48pm 28 31 mph 1018mb - 73f
6:42pm 25 28 mph 1018.1mb - 73f
6:36pm 25 29 mph 1018.1mb 70f 73f
6:30pm  -  mph - - 73f
6:24pm  -  mph - - 73f
6:18pm  -  mph - - 74f
6:12pm  -  mph - - 74f
6:06pm  -  mph - - 74f
6:00pm  -  mph - - 74f
5:54pm  -  mph - - 74f
5:48pm 26 29 mph 1018.4mb - 74f
5:42pm 28 31 mph 1018.5mb - 75f
5:36pm 25 29 mph 1018.6mb - 75f
5:30pm  -  mph 1018.6mb - 75f
5:24pm  -  mph 1018.6mb - 75f
5:18pm  -  mph 1018.7mb - 76f
5:12pm  -  mph 1018.7mb - 76f
5:06pm  -  mph 1018.8mb - 76f
5:00pm  -  mph - - 76f
4:54pm  -  mph - - 76f
4:48pm  -  mph - - 76f
4:42pm  -  mph - - 76f
4:36pm  -  mph - - 76f
4:30pm  -  mph - - 76f
4:24pm  -  mph - - 76f
4:18pm  -  mph - - 76f
4:12pm  -  mph - - 76f
4:06pm  -  mph - 70f 75f
4:00pm 21 23 mph 1019.1mb 70f 75f
3:54pm 20 23 mph 1019.2mb 70f 76f
3:48pm 21 24 mph 1019.2mb 70f 77f
3:42pm 21 23 mph 1019.2mb 69f 77f
3:36pm 21 22 mph 1019.3mb 69f 77f
3:30pm  -  mph - 69f 77f
3:24pm  -  mph - 69f 78f
3:18pm  -  mph - - 77f
3:12pm  -  mph - - 77f
3:06pm  -  mph - - 77f
3:00pm  -  mph - 69f 78f
2:54pm  -  mph - 68f 77f
2:48pm  -  mph - 67f 78f
2:42pm  -  mph - 65f 78f
2:36pm  -  mph - 65f 79f
2:30pm  -  mph - 66f 78f
2:24pm  -  mph - 67f 79f
2:18pm  -  mph - 66f 79f
2:12pm  -  mph - 64f 79f
2:06pm  -  mph - 62f 80f
2:00pm  -  mph 1019.8mb 64f 80f
1:54pm  -  mph 1019.9mb 64f 80f
1:48pm  -  mph 1019.9mb 62f 80f
1:42pm  -  mph 1019.9mb 62f 80f
1:36pm  -  mph 1019.9mb 63f 80f
1:30pm  -  mph 1019.9mb 64f 82f
1:24pm  -  mph 1019.9mb 63f 83f
1:18pm  -  mph - - 83f
1:12pm  -  mph - - 83f
1:06pm  -  mph - - 82f
1:00pm  -  mph - - 82f
12:54pm  -  mph - - 80f
12:48pm  -  mph - - 81f
12:42pm  -  mph - - 81f
12:36pm  -  mph - - 80f
12:30pm  -  mph - - 80f
12:24pm  -  mph - - 79f
12:18pm  -  mph - - 79f
12:12pm  -  mph - - 79f
12:06pm  -  mph - - 78f
12:00pm  -  mph - - 78f
11:54am  -  mph - - 78f
11:48am  -  mph - - 77f
11:42am  -  mph - - 76f
11:36am  -  mph - - 76f
11:30am  -  mph - - 74f
11:24am  -  mph - - 73f
11:18am  -  mph - - 73f
11:12am  -  mph - - 72f
11:06am  -  mph - - 72f
11:00am  -  mph - - 71f
10:54am  -  mph - - 72f
10:48am  -  mph - - 72f
10:42am  -  mph - - 71f
10:36am  -  mph - - 70f
10:30am  -  mph - - 70f
10:24am  -  mph - - 70f
10:18am 2 3 mph 1021.4mb 67f 69f
10:12am 1 3 mph 1021.4mb 67f 71f
10:06am  -  1 mph 1021.4mb 67f 71f
10:00am  -  1 mph 1021.5mb 67f 72f
9:54am  -  1 mph 1021.5mb 66f 71f
9:48am  -  1 mph 1021.5mb 67f 71f
8:54am  -  1 mph 1021.6mb 67f 66f
8:48am  -  1 mph 1021.6mb 67f 65f
8:42am  -  1 mph 1021.7mb 67f 65f
8:36am  -  2 mph 1021.7mb 67f 65f
8:30am 1 2 mph 1021.7mb 68f 64f
8:24am 1 2 mph 1021.7mb 68f 64f
8:18am 2
mph
1021.7mb 67f 64f
8:12am  -  2 mph 1021.7mb 67f 63f
8:06am 1 2 mph 1021.7mb 67f 63f
8:00am 2 3 mph 1021.7mb 68f 63f
7:54am 3 8 mph 1021.6mb 68f 62f
7:48am  -  mph 1021.6mb - -
7:42am 6 7 mph 1021.6mb 68f 61f
7:36am 5 6 mph 1021.6mb 68f 61f
7:30am 1 3 mph 1021.6mb 68f 61f
7:24am 2 5 mph 1021.6mb 68f 61f
7:18am 2
mph
1021.6mb 68f 61f
7:12am  -  3 mph 1021.6mb 69f 61f
7:06am 3 5 mph 1021.6mb 69f 60f
7:00am 2 3 mph 1021.6mb 69f 60f
6:54am 2 5 mph 1021.6mb 68f 60f
6:48am 3 5 mph 1021.5mb 69f 59f
6:42am 3 6 mph 1021.5mb 69f 59f
6:36am 6 7 mph 1021.5mb 69f 59f
6:30am 3 6 mph 1021.4mb 69f 59f
6:24am 5 7 mph 1021.4mb 68f 58f
6:18am 6 7 mph 1021.4mb 68f 58f
6:12am 6 7 mph 1021.4mb 67f 58f
6:06am 7 8 mph 1021.3mb 67f 59f
6:00am 3
mph
1021.3mb 67f 59f
5:54am 2 3 mph 1021.3mb 67f 59f
5:48am 2 5 mph 1021.3mb 67f 59f
5:42am 3 6 mph 1021.3mb 67f 59f
5:36am 5 6 mph 1021.3mb 67f 58f
5:30am 5 6 mph 1021.3mb 67f 58f
5:24am 5 6 mph 1021.4mb 66f 58f
5:18am 5 6 mph 1021.5mb 66f 58f
5:12am 6 7 mph 1021.4mb 67f 58f
5:06am 6 8 mph 1021.5mb 66f 58f
5:00am 7 8 mph 1021.5mb 66f 58f
4:54am 8 9 mph 1021.4mb 67f 58f
4:48am 8
mph
1021.5mb 65f 58f
4:42am 6 7 mph 1021.5mb 65f 57f
4:36am 5 6 mph 1021.6mb 66f 57f
4:30am 5 6 mph 1021.6mb 66f 57f
4:24am 5 6 mph 1021.6mb 66f 57f
4:18am 6 7 mph 1021.6mb 66f 57f
4:12am 6 7 mph 1021.5mb 66f 58f
4:06am 6
mph
1021.5mb 66f 60f
4:00am 3
mph
1021.5mb 66f 60f
3:54am 2 5 mph 1021.4mb 66f 60f
3:48am 3 6 mph 1021.4mb 66f 59f
3:42am 5 6 mph 1021.4mb 66f 59f
3:36am 6 7 mph 1021.5mb 66f 59f
3:30am 6 7 mph 1021.5mb 66f 59f
3:24am 6 7 mph 1021.6mb 66f 59f
3:18am 6 7 mph 1021.5mb 66f 59f
3:12am 6 7 mph 1021.6mb 66f 59f
3:06am 6 7 mph 1021.6mb 66f 59f
3:00am 6 8 mph 1021.6mb 66f 59f
2:54am 6 8 mph 1021.5mb 66f 59f
2:48am 7 9 mph 1021.6mb 66f 59f
2:42am 7 10 mph 1021.6mb 66f 59f
2:36am 8 10 mph 1021.7mb 66f 59f
2:30am 6 7 mph 1021.8mb 65f 59f
2:24am 6 7 mph 1021.8mb 65f 59f
2:18am 7
mph
1021.8mb 65f 58f
2:12am 7 8 mph 1021.8mb 65f 58f
2:06am 7 8 mph 1021.9mb 65f 58f
2:00am 6 8 mph 1021.9mb 65f 59f
1:54am 7 8 mph 1021.9mb 65f 59f
1:48am 6 7 mph 1021.9mb 65f 59f
1:42am 6 7 mph 1021.9mb 65f 59f
1:36am 7 9 mph 1022mb 65f 59f
1:30am 8 9 mph 1022.1mb 65f 59f
1:24am 8
mph
1022.1mb 65f 58f
1:18am 7 8 mph 1022.1mb 65f 59f
1:12am 7 8 mph 1022.2mb 65f 59f
1:06am 8 9 mph 1022.3mb 65f 59f
1:00am 8 9 mph 1022.3mb 65f 59f
12:54am 8
mph
1022.3mb 65f 59f
12:48am 8 9 mph 1022.3mb 65f 59f
12:42am 8 9 mph 1022.4mb 65f 59f
12:36am 7
mph
1022.4mb 65f 59f
12:30am 6 7 mph 1022.4mb 64f 59f
12:24am 6 7 mph 1022.5mb 64f 59f
12:18am 5 7 mph 1022.5mb 64f 60f
12:12am 6 8 mph 1022.6mb 64f 59f
12:06am 7 8 mph 1022.5mb 64f 59f
12:00am 7 9 mph 1022.5mb 64f 60f
Tue 07/28 11:54pm 7 8 mph 1022.5mb 64f 60f
11:48pm 6 7 mph - 63f 60f
11:42pm 5 6 mph - 63f 61f
11:36pm 3 5 mph - 62f 61f
11:30pm 3 6 mph 1022.7mb 62f 61f
11:24pm 6 7 mph 1022.7mb 62f 61f
11:18pm 5 6 mph 1022.8mb 62f 61f
11:12pm 3 5 mph 1022.8mb 62f 61f
11:06pm 5 6 mph 1022.9mb 62f 61f
11:00pm 5 7 mph 1022.9mb 62f 61f
10:54pm 6 7 mph 1023mb 62f 61f
10:48pm 5 6 mph 1022.9mb 63f 62f
10:42pm 3 5 mph 1023mb 63f 62f
10:36pm 3 6 mph 1022.9mb 63f 62f
10:30pm 3 5 mph 1022.9mb 63f 62f
10:24pm 3 5 mph 1022.9mb 63f 62f
10:18pm 5 7 mph 1022.9mb 63f 62f
10:12pm 5 10 mph 1022.8mb 64f 62f
10:06pm 7 10 mph 1022.8mb 64f 62f
10:00pm 9 13 mph 1022.8mb 64f 62f
9:54pm 10 13 mph 1022.8mb 64f 62f
9:48pm 8 11 mph 1022.8mb 65f 62f
9:42pm 8 10 mph 1022.8mb 65f 62f
9:36pm 9 11 mph 1022.7mb 65f 62f
9:30pm 8 13 mph 1022.7mb 65f 62f
9:24pm 8 14 mph 1022.7mb 65f 62f
9:18pm 10 14 mph 1022.6mb 66f 62f
9:12pm 11 14 mph 1022.7mb 66f 62f
9:06pm 8 11 mph 1022.6mb 66f 63f
9:00pm 7 10 mph 1022.6mb 66f 63f
8:54pm 10 13 mph 1022.6mb 66f 63f
8:48pm 10 14 mph 1022.6mb 67f 63f
8:42pm 9 13 mph 1022.6mb 67f 63f
8:36pm 11 18 mph 1022.6mb 67f 64f
8:30pm 15 18 mph 1022.5mb 67f 64f
8:24pm 15 17 mph 1022.5mb 67f 64f
8:18pm 15 17 mph 1022.6mb 68f 65f
8:12pm 14 18 mph 1022.5mb 67f 65f
8:06pm 16 20 mph 1022.6mb 68f 65f
8:00pm 17 21 mph 1022.6mb 67f 65f
7:54pm 14 18 mph 1022.5mb 68f 66f
7:48pm 13 16 mph 1022.5mb 67f 66f
7:42pm 14 16 mph 1022.5mb 69f 66f
7:36pm 9 14 mph 1022.4mb 68f 66f
7:30pm 10 14 mph 1022.4mb 68f 66f
7:24pm 13 17 mph 1022.4mb 68f 66f
7:18pm 14 15 mph 1022.4mb 68f 66f
7:12pm 14 16 mph 1022.5mb 69f 66f
7:06pm 10 15 mph 1022.5mb 69f 67f
7:00pm 14 18 mph 1022.5mb 70f 66f
6:54pm 16 18 mph 1022.5mb 68f 66f
6:48pm 7 11 mph 1022.6mb 69f 67f
6:42pm 10 14 mph 1022.5mb 69f 67f
6:36pm 10 16 mph 1022.5mb 70f 67f
6:30pm 14 17 mph 1022.5mb 70f 67f
6:24pm 10 15 mph 1022.6mb 69f 67f
6:18pm 11 15 mph 1022.6mb 68f 68f
6:12pm 11 17 mph 1022.6mb 69f 68f
6:06pm 16 21 mph 1022.6mb 69f 67f
6:00pm 16 22 mph 1022.6mb 69f 68f
5:54pm 17 21 mph 1022.5mb 70f 67f
5:48pm 11 16 mph 1022.5mb - 68f
5:42pm 13 20 mph 1022.5mb - 68f
5:36pm 16 18 mph 1022.5mb - 68f
5:30pm 14 21 mph 1022.6mb - 69f
5:24pm 17 21 mph 1022.6mb - 68f
5:18pm 18 21 mph 1022.6mb - 68f
5:12pm 18 21 mph 1022.6mb - 68f
5:06pm 15 20 mph 1022.6mb - 69f
5:00pm 17 20 mph 1022.6mb - 69f
4:54pm 17 20 mph 1022.6mb 70f 69f
4:48pm 14 16 mph 1022.7mb - 70f
4:42pm 14 17 mph 1022.7mb - 70f
4:36pm 11 17 mph 1022.7mb - 71f
4:30pm 14 17 mph 1022.7mb - 70f
4:24pm 14 16 mph 1022.7mb 70f 70f
4:18pm 16 20 mph 1022.8mb 69f 70f
4:12pm 16 20 mph 1022.9mb 70f 70f
4:06pm 15 17 mph 1022.9mb 70f 70f
4:00pm 16 20 mph 1022.9mb 70f 70f
3:54pm 15 20 mph 1023mb - 70f
3:48pm 16 21 mph 1023mb - 70f
3:42pm 16 22 mph 1023mb 71f 70f
3:36pm 15 20 mph 1023mb 70f 70f
3:30pm 17 21 mph 1023mb 70f 70f
3:24pm 16 21 mph 1023.1mb 69f 69f
3:18pm 16 20 mph 1023.2mb 69f 70f
3:12pm 15 18 mph 1023.2mb 69f 70f
3:06pm 16 18 mph 1023.2mb 69f 71f
3:00pm 14 16 mph 1023.3mb 69f 71f
2:54pm 13 16 mph 1023.3mb 69f 71f
2:48pm 14 16 mph 1023.4mb 69f 71f
2:42pm 15 17 mph 1023.4mb 68f 72f
2:36pm 14 15 mph 1023.4mb 68f 72f
2:30pm 14 16 mph 1023.4mb 66f 71f
2:24pm 14 16 mph 1023.5mb 68f 71f
2:18pm 14 16 mph 1023.6mb 68f 71f
2:12pm 14 17 mph 1023.7mb 68f 71f
2:06pm 13 15 mph 1023.7mb 68f 71f
2:00pm 15 17 mph 1023.7mb 68f 71f
1:54pm 15 17 mph 1023.7mb 68f 70f
1:48pm 16 20 mph 1023.7mb 67f 70f
1:42pm 15 18 mph 1023.7mb 67f 70f
1:36pm 16 17 mph 1023.7mb 67f 70f
1:30pm 14 16 mph 1023.8mb 67f 70f
1:24pm 14 16 mph 1023.8mb 66f 70f
1:18pm 9 11 mph 1023.9mb 66f 71f
1:12pm 11 14 mph 1023.9mb 65f 70f
1:06pm 9 11 mph 1023.9mb 65f 71f
1:00pm 7 10 mph 1024mb 65f 71f
12:54pm 8 10 mph 1024mb 65f 71f
12:48pm 2 8 mph 1024.1mb 66f 72f
12:42pm 8 9 mph 1024.2mb 65f 70f
12:36pm 7 9 mph 1024.2mb 65f 69f
12:30pm 7 9 mph 1024.3mb 64f 68f
12:24pm 7 9 mph 1024.3mb 63f 68f
12:18pm 7 9 mph 1024.4mb 63f 68f
12:12pm 8 10 mph 1024.4mb 63f 68f
12:06pm 9 11 mph 1024.4mb 63f 68f
12:00pm 8 11 mph 1024.4mb 63f 67f
11:54am 8 10 mph 1024.4mb 63f 67f
11:48am 7 9 mph 1024.5mb 64f 67f
11:42am 8 10 mph 1024.6mb 64f 65f
11:36am 8 10 mph 1024.6mb 64f 64f
11:30am 7 9 mph 1024.6mb 65f 64f
11:24am 7 9 mph 1024.6mb 65f 64f
11:18am 7 9 mph 1024.6mb 65f 64f
11:12am 6 8 mph 1024.6mb 65f 64f
11:06am 7 9 mph 1024.7mb 65f 64f
11:00am 6 9 mph 1024.8mb 65f 64f
10:54am  -  1 mph 1024.8mb 66f 66f
10:48am 1 2 mph 1024.8mb 66f 65f
10:42am 1 2 mph 1024.8mb 66f 65f
10:36am  -  1 mph 1024.9mb 66f 64f
10:30am 2 3 mph 1024.9mb 66f 63f
10:24am 3 5 mph 1024.9mb 66f 62f
10:18am 5 6 mph 1025mb 66f 62f
10:12am 5 6 mph 1024.9mb 66f 62f
10:06am 5 7 mph 1025mb 66f 62f
10:00am 6 8 mph 1025mb 66f 61f
9:54am 7 8 mph 1025mb 66f 61f
9:48am 7 9 mph 1025mb 66f 60f
9:42am 8 9 mph 1025.1mb 66f 60f
9:36am 8 9 mph 1025.1mb 66f 60f
9:30am 8 9 mph 1025.2mb 66f 59f
9:24am 7 8 mph 1025.2mb 66f 59f
9:18am 7 8 mph 1025.3mb 66f 59f
9:12am 7 9 mph 1025.3mb 66f 59f
9:06am 8 10 mph 1025.3mb 66f 58f
9:00am 8 11 mph 1025.3mb 66f 58f
8:54am 9 11 mph 1025.4mb 66f 57f
8:48am 9 10 mph 1025.4mb 66f 57f
8:42am 9 10 mph 1025.3mb 66f 57f
8:36am 8 10 mph 1025.2mb 66f 57f
8:30am 9 11 mph 1025.3mb 67f 57f
8:24am 10 11 mph 1025.3mb 66f 57f
8:18am 10 11 mph 1025.2mb 66f 57f
8:12am 8 10 mph 1025.3mb 66f 58f
8:06am 8 9 mph 1025.3mb 66f 57f
8:00am 7 9 mph 1025.3mb 66f 58f
7:54am 5 7 mph 1025.3mb 67f 58f
7:48am 5 6 mph 1025.3mb 67f 58f
7:42am 6 7 mph 1025.3mb 67f 58f
7:36am 3 6 mph 1025.3mb 67f 58f
7:30am 5 6 mph 1025.3mb 66f 58f
7:24am 3 7 mph 1025.3mb 66f 58f
7:18am 6 8 mph 1025.3mb 66f 57f
7:12am 6 8 mph 1025.2mb 67f 57f
7:06am 6 8 mph 1025.1mb 67f 58f
7:00am 6 7 mph 1025mb 67f 58f
6:54am 6 8 mph 1025mb 67f 57f
6:48am 7 9 mph 1025mb 67f 57f
6:42am 8 9 mph 1025mb 67f 57f
6:36am 7 8 mph 1024.9mb 67f 57f
6:30am 7 8 mph 1024.9mb 67f 57f
6:24am 7 8 mph 1024.9mb 67f 57f
6:18am 7 9 mph 1024.9mb 67f 57f
6:12am 7 8 mph 1024.8mb 67f 57f
6:06am 7 8 mph 1024.8mb 67f 57f
6:00am 7 8 mph 1024.8mb 67f 58f
5:54am 5 7 mph 1024.9mb 67f 58f
5:48am 5 6 mph 1024.9mb 67f 58f
5:42am 5 7 mph 1024.9mb 67f 58f
5:36am 5
mph
1024.8mb 66f 58f
5:30am 3 6 mph 1024.7mb 66f 58f
5:24am 5 6 mph 1024.7mb 66f 58f
5:18am 3 5 mph 1024.8mb 66f 58f
5:12am 5 6 mph 1024.8mb 65f 58f
5:06am 2 3 mph 1024.8mb 65f 58f
5:00am 2 3 mph 1024.8mb 66f 58f
4:54am 2 3 mph 1024.8mb 66f 57f
4:48am 2 5 mph 1024.8mb 66f 58f
4:42am 3 5 mph 1024.8mb 66f 58f
4:36am 3 5 mph 1024.8mb 66f 58f
4:30am 3 5 mph 1024.8mb 65f 58f
4:24am 2 3 mph 1024.8mb 65f 58f
4:18am  -  2 mph 1024.8mb 65f 58f
4:12am  -  3 mph 1024.8mb 65f 58f
4:06am 2 3 mph 1024.7mb 65f 58f
4:00am 1 2 mph 1024.7mb 65f 58f
3:54am 1 2 mph 1024.7mb 65f 58f
3:48am 1 2 mph 1024.5mb 65f 58f
3:42am  -  3 mph 1024.6mb 65f 57f
3:36am 1 2 mph 1024.7mb 65f 58f
3:30am 1 2 mph 1024.7mb 65f 58f
3:24am 2 3 mph 1024.7mb 65f 58f
3:18am 2 5 mph 1024.7mb 65f 58f
3:12am 3 5 mph 1024.7mb 65f 58f
3:06am 5 6 mph 1024.7mb 65f 58f
3:00am 6 7 mph 1024.7mb 65f 58f
2:54am 6 7 mph 1024.7mb 65f 58f
2:48am 6
mph
1024.7mb 65f 58f
2:42am 3 6 mph 1024.6mb 65f 58f
2:36am 5 6 mph 1024.7mb 65f 58f
2:30am 5 6 mph 1024.6mb 65f -
2:24am 3 5 mph 1024.6mb 65f -
2:18am  -  mph - - 58f
2:12am  -  mph - - 58f
2:06am  -  mph - - 58f
2:00am 5 6 mph 1024.7mb 65f 58f
1:54am 5 6 mph 1024.7mb 65f 58f
1:48am 3 5 mph 1024.8mb 65f 58f
1:42am 3 5 mph 1024.7mb 65f 58f
1:36am 5 6 mph 1024.8mb 66f 58f
1:30am 5
mph
1024.8mb 65f 59f
1:24am 5 6 mph 1024.7mb 65f 59f
1:18am 5 6 mph 1024.7mb 65f 59f
1:12am 3 6 mph 1024.7mb 65f 59f
1:06am 6 7 mph 1024.8mb 65f 60f
1:00am 7 8 mph 1024.8mb 65f 60f
12:54am 7 10 mph 1024.8mb 65f 60f
12:48am 8 10 mph 1024.7mb 65f 60f
12:42am 7 9 mph 1024.8mb 65f 60f
12:36am 7 13 mph 1024.8mb 65f 60f
12:30am 10 14 mph 1024.8mb 65f 60f
12:24am 8 10 mph 1024.9mb 65f 60f
12:18am 8 11 mph 1024.9mb 65f 60f
12:12am 8 10 mph 1024.9mb 65f 60f
12:06am 8 11 mph 1025mb 65f 60f
12:00am 7 10 mph 1025mb 65f 60f
Mon 07/27 11:54pm 8 9 mph 1025mb 65f 60f
11:48pm 8 11 mph 1025mb 65f 60f
11:42pm 6 8 mph 1025mb 65f 60f
11:36pm 8 9 mph 1025.1mb 65f 60f
11:30pm 7 11 mph 1025.2mb 65f 60f
11:24pm 8 11 mph 1025.2mb 65f 60f
11:18pm 7 10 mph 1025.3mb 65f 60f
11:12pm 7 10 mph 1025.2mb 65f 60f
11:06pm 7 9 mph 1025.3mb 65f 60f
11:00pm 8 9 mph 1025.3mb 65f 60f
10:54pm 8 10 mph 1025.3mb 64f 60f
10:48pm 8 10 mph 1025.3mb 64f 60f
10:42pm 7 11 mph 1025.4mb 64f 60f
10:36pm 8 10 mph 1025.4mb 64f 60f
10:30pm 9 11 mph 1025.5mb 64f 60f
10:24pm 11 13 mph 1025.5mb 64f 60f
10:18pm 9 10 mph 1025.5mb 64f 60f
10:12pm 8 9 mph 1025.5mb 64f 60f
10:06pm 8 9 mph 1025.5mb 64f 60f
10:00pm 8 10 mph 1025.4mb 64f 61f
9:54pm 9 10 mph 1025.4mb 64f 61f
9:48pm 9
mph
1025.3mb 64f 61f
9:42pm 8 10 mph 1025.3mb 65f 61f
9:36pm 8 10 mph 1025.2mb 65f 61f
9:30pm 8 10 mph 1025.2mb 65f 61f
9:24pm 7 9 mph 1025.1mb 66f 61f
9:18pm 7 11 mph 1025.2mb 66f 61f
9:12pm 6 9 mph 1025.2mb 66f 61f
9:06pm 8 9 mph 1025.1mb 66f 61f
9:00pm 6 8 mph 1025.1mb 66f 61f
8:54pm 8 13 mph 1025mb 66f 61f
8:48pm 7 13 mph 1025mb 67f 62f
8:42pm 7 13 mph 1025mb 67f 62f
8:36pm 8 16 mph 1024.9mb 67f 62f
8:30pm 10 15 mph 1024.9mb 66f 62f
8:24pm 13 17 mph 1024.9mb 67f 62f
8:18pm 9 11 mph 1024.8mb 67f 62f
8:12pm 9 10 mph 1024.8mb 67f 62f
8:06pm 9 15 mph 1024.8mb 67f 62f
8:00pm 15 18 mph 1024.8mb 67f 62f
7:54pm 15 20 mph 1024.9mb 67f 62f
7:48pm 16 18 mph 1024.8mb 67f 62f
7:42pm 14 16 mph 1024.8mb 67f 63f
7:36pm 13 17 mph 1024.7mb 67f 63f
7:30pm 15 20 mph 1024.7mb 67f 63f
7:24pm 13 17 mph 1024.6mb 67f 63f
7:18pm 16 20 mph 1024.5mb 67f 63f
7:12pm 14 22 mph 1024.5mb 67f 63f
7:06pm 11 16 mph 1024.5mb 67f 63f
7:00pm 14 20 mph 1024.4mb 67f 63f
6:54pm 18 21 mph 1024.4mb 67f 63f
6:48pm 16 22 mph 1024.4mb 67f 64f
6:42pm 18 22 mph 1024.4mb 67f 63f
6:36pm 15 18 mph 1024.4mb 67f 64f
6:30pm 16 20 mph 1024.5mb 67f 64f
6:24pm 14 18 mph 1024.5mb 68f 64f
6:18pm 15 23 mph 1024.5mb 68f 64f
6:12pm 17 22 mph 1024.5mb 68f 64f
6:06pm 20 23 mph 1024.4mb 67f 64f
6:00pm 17 22 mph 1024.5mb 67f 64f
5:54pm 14 20 mph 1024.5mb 67f 64f
5:48pm 14 20 mph 1024.5mb 67f 64f
5:42pm 17 21 mph 1024.6mb 68f 64f
5:36pm 15 18 mph 1024.6mb 68f 64f
5:30pm 15 22 mph 1024.6mb 67f 64f
5:24pm 17 22 mph 1024.5mb 68f 64f
5:18pm 16 21 mph 1024.6mb 68f 64f
5:12pm 17 21 mph 1024.5mb 68f 64f
5:06pm 17 22 mph 1024.5mb 68f 64f
5:00pm 14 17 mph 1024.5mb 68f 65f
4:54pm 15 22 mph 1024.5mb 68f 64f
4:48pm 16 21 mph 1024.4mb 68f 64f
4:42pm 9 15 mph 1024.5mb 68f 64f
4:36pm 10 16 mph 1024.5mb 68f 65f
4:30pm 11 18 mph 1024.5mb 68f 65f
4:24pm 13 18 mph 1024.5mb 68f 65f
4:18pm 13 20 mph 1024.5mb 68f 65f
4:12pm 14 20 mph 1024.4mb 68f 65f
4:06pm 13 20 mph 1024.5mb 68f 64f
4:00pm 14 18 mph 1024.4mb 68f 64f
3:54pm 14 18 mph 1024.4mb 68f 64f
3:48pm 10 17 mph 1024.3mb 68f 65f
3:42pm 14 18 mph 1024.3mb 68f 64f
3:36pm 14 18 mph 1024.3mb 68f 64f
3:30pm 13 16 mph 1024.3mb 68f 64f
3:24pm 15 20 mph 1024.2mb 67f 64f
3:18pm 16 20 mph 1024.3mb 67f 64f
3:12pm 14 18 mph 1024.2mb 67f 64f
3:06pm 13 17 mph 1024.2mb 68f 64f
3:00pm 15 18 mph 1024.2mb 67f 64f
2:54pm 13 20 mph 1024.2mb 68f 64f
2:48pm 14 20 mph 1024.2mb 67f 64f
2:42pm 13 17 mph 1024.2mb 67f 65f
2:36pm 13 18 mph 1024.2mb 67f 64f
2:30pm 14 18 mph 1024.1mb 67f 64f
2:24pm 15 18 mph 1024.1mb 67f 64f
2:18pm 14 20 mph 1024.2mb 67f 64f
2:12pm 15 17 mph 1024.1mb 67f 64f
2:06pm 14 17 mph 1024.1mb 67f 64f
2:00pm 13 17 mph 1024.1mb 66f 63f
1:54pm 13 18 mph 1024.1mb 67f 64f
1:48pm 13 17 mph 1024mb 67f 64f
1:42pm 13 18 mph 1024mb 67f 64f
1:36pm 14 20 mph 1024mb 67f 64f
1:30pm 14 17 mph 1023.9mb 66f 64f
1:24pm 13 17 mph 1023.9mb 66f 64f
1:18pm 13 17 mph 1023.9mb 66f 64f
1:12pm 13 17 mph 1023.8mb 66f 64f
1:06pm 14 17 mph 1023.7mb 66f 63f
1:00pm 13 16 mph 1023.6mb 66f 64f
12:54pm 11 17 mph 1023.7mb 66f 64f
12:48pm 13 18 mph 1023.7mb 66f 64f
12:42pm 15 20 mph 1023.7mb 66f 64f
12:36pm 14 18 mph 1023.8mb 66f 63f
12:30pm 13 17 mph 1023.9mb 66f 64f
12:24pm 14 18 mph 1023.8mb 66f 63f
12:18pm 14 20 mph 1023.8mb 65f 64f
12:12pm 15 20 mph 1023.7mb 65f 64f
12:06pm 14 17 mph 1023.7mb 65f 64f
12:00pm 15 18 mph 1023.6mb 65f 64f
11:54am 14 18 mph 1023.5mb 65f 64f
11:48am 13 16 mph 1023.5mb 65f 64f
11:42am 13 16 mph 1023.4mb 65f 64f
11:36am 11 16 mph 1023.4mb 65f 64f
11:30am 13 16 mph 1023.3mb 65f 64f
11:24am 11 14 mph 1023.3mb 65f 64f
11:18am 7 9 mph 1023.3mb - 64f
11:12am 7 10 mph 1023.2mb - 64f
11:06am 8 11 mph 1023.2mb - 63f
11:00am 10 16 mph 1023.3mb 65f 63f
10:54am 10 15 mph 1023.2mb 66f 63f
10:48am 10 14 mph 1023.2mb 66f 62f
10:42am 11 15 mph 1023.1mb 65f 62f
10:36am 13 16 mph 1023.1mb 65f 63f
10:30am 11 15 mph 1023mb 65f 63f
10:24am 11 15 mph 1022.9mb 65f 62f
10:18am 14 16 mph 1022.9mb 65f 62f
10:12am 14 15 mph 1022.8mb 65f 62f
10:06am 11 14 mph 1022.8mb 66f 62f